[[{"header":{"parameterUnit":"m.s-1","parameterCategory":1,"la1":30.2991,"la2":30.254,"lo1":-89.0895,"lo2":-89.0444,"dy":0.0017,"dx":0.0017,"nx":28,"ny":28,"refTime":"2025-02-03T09:00:00:Z","depth":0,"parameterNumber":2,"parameterNumberName":"U-component_of_WINDS"},"data":[0,0,0,0,0,0,0,0,0,0,0,0,0,0,0,0,0,0,0,0,0,0,0,0,0,0,0,0,0,0,0,0,0,0,0,0,0,0,0,0,0,0,0,0,0,0,0,0,0,0,0,0,0,0,0,0,0,0,-0.2436,-0.2436,0,-0.2447,-0.2447,-0.2447,-0.2465,-0.2465,-0.2465,-0.2465,-0.2476,-0.2476,-0.2476,0,0,0,0,0,0,0,0,0,0,0,0,0,-0.243,-0.243,-0.2436,-0.2436,-0.2436,-0.2447,-0.2447,-0.2447,-0.2464,-0.2465,-0.2465,-0.2466,-0.2476,-0.2476,-0.2476,0,0,0,0,0,0,0,0,0,0,0,0,0,-0.2436,-0.243,-0.2436,-0.2446,-0.2447,-0.2447,-0.2447,-0.2447,-0.2464,-0.2465,-0.2465,-0.2466,-0.2476,-0.2476,-0.2476,-0.2467,0,0,-0.2476,-0.2476,0,0,0,0,0,0,0,0,-0.2435,-0.2436,-0.2445,-0.2446,-0.2447,-0.2455,-0.2449,-0.2454,-0.2464,-0.2458,-0.2465,-0.2466,-0.2469,-0.2469,-0.247,-0.2467,-0.2468,-0.2476,-0.2476,-0.2476,-0.2476,0,0,0,0,0,0,0,-0.2435,-0.2436,-0.244,-0.2445,-0.2446,-0.245,-0.2451,-0.245,-0.2461,-0.2458,-0.246,-0.2461,-0.2469,-0.247,-0.2471,-0.2468,-0.2476,-0.2476,-0.2476,-0.2476,-0.2458,-0.2457,0,0,0,0,0,0,-0.2433,-0.2435,-0.244,-0.2441,-0.2442,-0.245,-0.2451,-0.2452,-0.2461,-0.2462,-0.246,-0.2462,-0.247,-0.2471,-0.2471,-0.2461,-0.2476,-0.2476,-0.2476,-0.2458,-0.2457,-0.2457,0,0,0,0,0,0,-0.2433,-0.2433,-0.244,-0.2438,-0.2439,-0.2449,-0.245,-0.2452,-0.2453,-0.2462,-0.2464,-0.2459,-0.2471,-0.2471,-0.2468,-0.2461,-0.2476,-0.2476,-0.2459,-0.2458,-0.2457,-0.2439,0,0,0,0,0,0,-0.2433,-0.2433,-0.243,-0.2438,-0.2439,-0.2436,-0.2449,-0.2452,-0.2453,-0.2454,-0.2462,-0.2463,-0.2471,-0.2468,-0.2468,-0.2462,-0.2476,-0.2459,-0.2458,-0.2457,-0.2441,-0.2438,-0.2436,0,0,0,0,0,-0.2432,-0.2424,-0.243,-0.243,-0.2435,-0.2436,-0.2436,-0.2445,-0.2452,-0.2449,-0.2455,-0.2463,-0.2462,-0.2467,-0.2468,-0.2461,-0.246,-0.2459,-0.2458,-0.2442,-0.2439,-0.2436,0,0,0,0,0,0,-0.2415,-0.2426,-0.2432,-0.2426,-0.243,-0.2439,-0.2435,-0.2442,-0.2444,-0.2445,-0.2456,-0.2458,-0.2453,-0.2457,-0.2462,-0.2452,-0.2462,-0.2461,-0.245,-0.2447,-0.2445,-0.2444,-0.2476,0,0,0,0,0,-0.2411,-0.241,-0.2419,-0.2414,-0.2415,-0.2424,-0.2425,-0.2432,-0.2436,-0.2438,-0.2443,-0.2447,-0.2448,-0.2448,-0.2449,-0.2441,-0.2443,-0.2437,-0.2435,-0.2433,-0.2432,-0.2428,-0.2425,-0.2453,-0.2453,-0.2453,0,0,-0.2401,-0.2407,-0.2406,-0.241,-0.2414,-0.2413,-0.2426,-0.2424,-0.2424,-0.2437,-0.2434,-0.2439,-0.2444,-0.2438,-0.2436,-0.2441,-0.2424,-0.2431,-0.243,-0.243,-0.2426,-0.2424,-0.2421,-0.2453,-0.2453,-0.2453,0,0,-0.2384,-0.2389,-0.2384,-0.2388,-0.2393,-0.2399,-0.2398,-0.2406,-0.2409,-0.2406,-0.2417,-0.2416,-0.2417,-0.242,-0.2421,-0.2405,-0.2412,-0.2405,-0.2393,-0.2389,-0.2387,-0.2385,-0.2379,-0.2376,-0.2404,-0.2404,-0.2404,0,-0.2372,-0.2371,-0.2381,-0.2379,-0.238,-0.2393,-0.2388,-0.2391,-0.2396,-0.2397,-0.2403,-0.2404,-0.2408,-0.2403,-0.2399,-0.24,-0.2399,-0.2404,-0.2386,-0.2384,-0.2383,-0.2377,-0.2375,-0.2403,-0.2403,-0.2403,-0.2403,0,-0.2356,-0.2355,-0.2351,-0.2356,-0.2357,-0.2353,-0.2362,-0.2362,-0.2369,-0.2374,-0.2371,-0.2376,-0.2379,-0.2378,-0.2384,-0.2374,-0.2377,-0.2384,-0.2394,-0.2379,-0.2374,-0.2372,-0.2401,-0.2401,-0.2402,-0.2402,0,0,-0.2328,-0.2339,-0.2337,-0.2339,-0.2346,-0.2345,-0.2342,-0.2345,-0.2344,-0.2347,-0.2345,-0.2345,-0.2352,-0.2354,-0.236,-0.2357,-0.2343,-0.2365,-0.2365,-0.236,-0.2332,-0.2326,-0.2324,-0.2348,-0.2348,-0.2348,-0.2331,0,-0.2313,-0.2308,-0.2317,-0.231,-0.231,-0.2321,-0.2319,-0.2322,-0.2327,-0.2327,-0.2333,-0.2333,-0.2341,-0.2343,-0.234,-0.2345,-0.2338,-0.2347,-0.2346,-0.2346,-0.2344,-0.2321,-0.2315,-0.23,-0.233,-0.2329,-0.2329,0,-0.2294,-0.2296,-0.2289,-0.2296,-0.2296,-0.2294,-0.2296,-0.2296,-0.23,-0.2304,-0.2306,-0.2314,-0.2311,-0.2321,-0.2317,-0.2323,-0.2323,-0.2326,-0.2326,-0.2326,-0.2336,-0.2321,-0.2295,-0.2293,-0.2326,-0.2326,-0.2326,0,-0.2274,-0.2275,-0.2272,-0.2273,-0.2281,-0.2279,-0.2282,-0.2287,-0.2288,-0.229,-0.229,-0.2292,-0.2293,-0.2294,-0.2302,-0.2308,-0.2297,-0.2308,-0.23,-0.23,-0.2297,-0.2297,-0.2271,-0.2298,-0.2298,-0.2298,-0.2298,0,-0.2255,-0.2251,-0.2263,-0.226,-0.2256,-0.2265,-0.226,-0.2265,-0.2269,-0.2267,-0.2277,-0.2276,-0.2286,-0.2286,-0.2292,-0.2288,-0.2288,-0.2291,-0.2293,-0.229,-0.229,-0.2291,-0.2292,-0.2297,-0.2297,-0.2297,-0.2297,0,-0.2233,-0.2241,-0.2237,-0.2245,-0.2247,-0.2243,-0.2249,-0.2247,-0.2253,-0.2251,-0.2251,-0.226,-0.2259,-0.2267,-0.2269,-0.2273,-0.2266,-0.227,-0.2265,-0.2266,-0.2258,-0.2259,-0.2231,-0.2228,-0.2256,-0.2256,-0.2256,0,-0.222,-0.2217,-0.2225,-0.2224,-0.2227,-0.2227,-0.2227,-0.2237,-0.2237,-0.2241,-0.2239,-0.2239,-0.224,-0.2239,-0.2246,-0.2247,-0.225,-0.2241,-0.2251,-0.2248,-0.225,-0.225,-0.225,-0.2239,-0.2238,-0.2238,-0.2238,0,-0.2198,-0.2202,-0.2202,-0.2204,-0.2205,-0.2206,-0.2209,-0.2208,-0.2218,-0.2218,-0.2218,-0.2219,-0.222,-0.2221,-0.2223,-0.2226,-0.2233,-0.2235,-0.2233,-0.223,-0.2227,-0.2229,-0.2259,-0.2235,-0.2236,-0.2236,-0.2236,-0.2236,-0.218,-0.2177,-0.2182,-0.2182,-0.2185,-0.2187,-0.2186,-0.2191,-0.2191,-0.2193,-0.2198,-0.2197,-0.2201,-0.2205,-0.2207,-0.2207,-0.2211,-0.2209,-0.2208,-0.2208,-0.2206,-0.2228,-0.2207,-0.2207,-0.2207,-0.2207,-0.2207,0,-0.2157,-0.2161,-0.2161,-0.2164,-0.2164,-0.2171,-0.2175,-0.2174,-0.2173,-0.2176,-0.2177,-0.2177,-0.2177,-0.2183,-0.2184,-0.2182,-0.2186,-0.2182,-0.2182,-0.2183,-0.2202,-0.2203,-0.2179,-0.2179,-0.2179,-0.2179,-0.2179,-0.2179,-0.2146,-0.2142,-0.2146,-0.2144,-0.2148,-0.2147,-0.2148,-0.215,-0.2152,-0.2151,-0.2152,-0.2156,-0.216,-0.2161,-0.2162,-0.2164,-0.2163,-0.2159,-0.2162,-0.2179,-0.2182,-0.2184,-0.2186,-0.2159,-0.2159,-0.2143,-0.2143,-0.2143]},{"header":{"parameterUnit":"m.s-1","parameterCategory":1,"la1":30.2991,"la2":30.254,"lo1":-89.0895,"lo2":-89.0444,"dy":0.0017,"dx":0.0017,"nx":28,"ny":28,"refTime":"2025-02-03T09:00:00:Z","depth":0,"parameterNumber":3,"parameterNumberName":"V-component_of_WINDS"},"data":[0,0,0,0,0,0,0,0,0,0,0,0,0,0,0,0,0,0,0,0,0,0,0,0,0,0,0,0,0,0,0,0,0,0,0,0,0,0,0,0,0,0,0,0,0,0,0,0,0,0,0,0,0,0,0,0,0,0,0.7514,0.7514,0,0.7496,0.7495,0.7495,0.7464,0.7463,0.7463,0.7462,0.7443,0.7443,0.7443,0,0,0,0,0,0,0,0,0,0,0,0,0,0.7523,0.7523,0.7514,0.7514,0.7514,0.7496,0.7495,0.7495,0.7464,0.7463,0.7463,0.7462,0.7443,0.7443,0.7443,0,0,0,0,0,0,0,0,0,0,0,0,0,0.7513,0.7523,0.7514,0.7496,0.7494,0.7496,0.7495,0.7495,0.7464,0.7463,0.7462,0.7462,0.7443,0.7443,0.7443,0.7461,0,0,0.7444,0.7444,0,0,0,0,0,0,0,0,0.7514,0.7513,0.7499,0.7497,0.7495,0.7481,0.7491,0.7484,0.7464,0.7476,0.7462,0.7461,0.7457,0.7455,0.7454,0.746,0.746,0.7444,0.7444,0.7444,0.7444,0,0,0,0,0,0,0,0.7515,0.7514,0.7507,0.7499,0.7496,0.7489,0.7486,0.749,0.7471,0.7474,0.7472,0.747,0.7455,0.7454,0.7453,0.7459,0.7444,0.7444,0.7444,0.7444,0.748,0.7481,0,0,0,0,0,0,0.7518,0.7514,0.7507,0.7506,0.7503,0.7489,0.7487,0.7487,0.7471,0.7468,0.7471,0.7469,0.7454,0.7453,0.7452,0.7473,0.7444,0.7444,0.7444,0.7479,0.748,0.7481,0,0,0,0,0,0,0.7518,0.7518,0.7508,0.751,0.7508,0.749,0.749,0.7487,0.7485,0.7469,0.7465,0.7473,0.7454,0.7452,0.7459,0.7472,0.7444,0.7444,0.7478,0.7479,0.748,0.7513,0,0,0,0,0,0,0.7519,0.7518,0.7524,0.751,0.7508,0.7515,0.7491,0.7487,0.7485,0.7482,0.7469,0.7466,0.7453,0.7459,0.7459,0.7471,0.7444,0.7477,0.7478,0.748,0.7511,0.7516,0.7519,0,0,0,0,0,0.7519,0.7534,0.7525,0.7524,0.7516,0.7516,0.7515,0.7499,0.7486,0.7493,0.7482,0.7467,0.747,0.746,0.746,0.7472,0.7476,0.7478,0.748,0.7509,0.7515,0.7519,0,0,0,0,0,0,0.7551,0.7532,0.7521,0.7532,0.7526,0.7511,0.7519,0.7505,0.7502,0.75,0.748,0.7477,0.7487,0.748,0.7469,0.7489,0.7471,0.7473,0.7493,0.7498,0.7502,0.7504,0.7444,0,0,0,0,0,0.7559,0.7561,0.7544,0.7556,0.7553,0.7536,0.7536,0.7524,0.7517,0.7514,0.7504,0.7497,0.7497,0.7497,0.7496,0.751,0.7507,0.7518,0.7522,0.7526,0.7528,0.7535,0.754,0.7488,0.7488,0.7488,0,0,0.7576,0.7566,0.7568,0.7562,0.7555,0.7558,0.7534,0.7538,0.754,0.7514,0.752,0.7513,0.7504,0.7515,0.7519,0.751,0.7542,0.7528,0.7531,0.7531,0.7538,0.7543,0.7547,0.7489,0.7489,0.7489,0,0,0.7608,0.7601,0.761,0.7604,0.7594,0.7583,0.7586,0.7572,0.7566,0.7572,0.7553,0.7555,0.7555,0.755,0.7547,0.7578,0.7564,0.7578,0.76,0.7607,0.7612,0.7615,0.7627,0.7631,0.758,0.758,0.758,0,0.7631,0.7633,0.7616,0.7621,0.7618,0.7596,0.7605,0.76,0.7591,0.759,0.7579,0.7579,0.7571,0.7581,0.7588,0.7587,0.7589,0.7579,0.7612,0.7616,0.7619,0.763,0.7634,0.7582,0.7582,0.7581,0.7581,0,0.7662,0.7664,0.7672,0.7664,0.7663,0.767,0.7653,0.7654,0.7642,0.7633,0.7639,0.7629,0.7626,0.7627,0.7616,0.7635,0.7629,0.7616,0.7597,0.7626,0.7636,0.764,0.7584,0.7584,0.7583,0.7583,0,0,0.7713,0.7695,0.7699,0.7695,0.7683,0.7685,0.7691,0.7687,0.7689,0.7683,0.7688,0.7688,0.7676,0.7673,0.7661,0.7667,0.7693,0.7653,0.7652,0.7661,0.7714,0.7724,0.7729,0.7683,0.7684,0.7684,0.7715,0,0.7743,0.7753,0.7737,0.775,0.7752,0.7731,0.7736,0.7729,0.772,0.7721,0.7711,0.7712,0.7695,0.7693,0.7699,0.7688,0.7703,0.7686,0.7688,0.7688,0.7691,0.7734,0.7745,0.7775,0.7718,0.7719,0.7719,0,0.778,0.7776,0.7789,0.7777,0.7777,0.7783,0.7778,0.7779,0.7771,0.7764,0.7761,0.7747,0.7752,0.7734,0.7741,0.773,0.773,0.7725,0.7726,0.7725,0.7706,0.7736,0.7783,0.7788,0.7725,0.7725,0.7724,0,0.7817,0.7815,0.7823,0.782,0.7806,0.781,0.7804,0.7796,0.7795,0.7791,0.7791,0.7788,0.7786,0.7784,0.777,0.7758,0.7779,0.7759,0.7773,0.7774,0.7779,0.7779,0.7828,0.7778,0.7778,0.7778,0.7778,0,0.7852,0.7861,0.7839,0.7844,0.7854,0.7836,0.7846,0.7838,0.7831,0.7834,0.7815,0.7818,0.7799,0.78,0.7788,0.7796,0.7796,0.779,0.7787,0.7792,0.7793,0.7792,0.779,0.7779,0.7779,0.7779,0.7779,0,0.7895,0.7881,0.7888,0.7874,0.7871,0.7878,0.7867,0.7871,0.786,0.7865,0.7865,0.7849,0.7849,0.7834,0.7832,0.7824,0.7837,0.783,0.784,0.7838,0.7853,0.7852,0.7903,0.7909,0.7856,0.7856,0.7857,0,0.7919,0.7925,0.7912,0.7913,0.7908,0.791,0.7909,0.7891,0.7891,0.7883,0.7888,0.7887,0.7885,0.7887,0.7876,0.7874,0.7867,0.7885,0.7867,0.7872,0.7868,0.7868,0.7869,0.7889,0.789,0.789,0.7891,0,0.7963,0.7956,0.7955,0.7952,0.7951,0.7948,0.7943,0.7945,0.7926,0.7927,0.7927,0.7926,0.7924,0.7923,0.7919,0.7913,0.7899,0.7897,0.79,0.7905,0.7911,0.7908,0.7851,0.7896,0.7895,0.7895,0.7895,0.7894,0.7997,0.8002,0.7994,0.7993,0.7988,0.7985,0.7988,0.7978,0.7978,0.7975,0.7965,0.7967,0.7959,0.7953,0.7948,0.795,0.7941,0.7945,0.7947,0.7948,0.7951,0.791,0.7949,0.7949,0.7949,0.7948,0.7948,0,0.804,0.8034,0.8034,0.8028,0.8029,0.8015,0.8009,0.801,0.8013,0.8007,0.8006,0.8006,0.8006,0.7994,0.7992,0.7996,0.7989,0.7996,0.7996,0.7995,0.7959,0.7957,0.8001,0.8001,0.8001,0.8001,0.8001,0.8001,0.8063,0.8071,0.8062,0.8067,0.8061,0.8063,0.8061,0.8058,0.8053,0.8055,0.8054,0.8046,0.8038,0.8036,0.8035,0.8031,0.8032,0.8041,0.8035,0.8002,0.7997,0.7992,0.799,0.8041,0.8041,0.8071,0.8071,0.8071]}]]